Change the Weather History Date:

Monday, April 7, 2014

  Actual Average Record
Temperature  
Mean Temperature 54 °F -  
Max Temperature 63 °F 52 °F 63 °F (2014)
Min Temperature 44 °F 36 °F 30 °F (2001)
Degree Days  
Heating Degree Days 12    
Growing Degree Days 4 (Base 50)    
Moisture  
Dew Point 46 °F    
Average Humidity 81    
Maximum Humidity 96    
Minimum Humidity 62    
Precipitation  
Precipitation 0.00 in - - ()
Sea Level Pressure  
Sea Level Pressure 30.22 in    
Wind  
Wind Speed 2 mph (ESE)    
Max Wind Speed 8 mph    
Max Gust Speed -    
Visibility 10 miles    
Events      
Averages and records for this station are not official NWS values.
T = Trace of Precipitation, MM = Missing Value Source: NWS Daily Summary

Daily Weather History Graph

Daily Weather History Graph

Search for Another Location

Airport or City:

Trip Planner

Search our weather history database for the weather conditions in past years. The results will help you decide how hot, cold, wet, or windy it might be!

Date:

Astronomy

Apr. 07, 2014 Rise Set
Actual Time 6:37 AM PDT 7:51 PM PDT
Civil Twilight 6:05 AM PDT 8:24 PM PDT
Nautical Twilight 5:26 AM PDT 9:03 PM PDT
Astronomical Twilight 4:44 AM PDT 9:45 PM PDT
Moon 12:26 PM PDT (4/7) 2:45 AM PDT (4/7)
Length of Visible Light 14h 18m
Length of Day
13h 14m
First Quarter, 54% of the Moon is Illuminated
Apr 7
First Quarter
Apr 15
Full
Apr 22
Last Quarter
Apr 28
New
May 6
First Quarter

Hourly Weather History & Observations

Time (PDT) Temp. Dew Point Humidity Pressure Visibility Wind Dir Wind Speed Gust Speed Precip Events Conditions
12:53 AM 48.0 °F 44.1 °F 86% 30.29 in 10.0 mi Calm Calm - N/A   Overcast
1:53 AM 48.0 °F 44.1 °F 86% 30.30 in 10.0 mi Calm Calm - N/A   Overcast
2:53 AM 50.0 °F 45.0 °F 83% 30.29 in 10.0 mi East 4.6 mph - N/A   Overcast
3:22 AM 50.0 °F 46.0 °F 86% 30.29 in 10.0 mi ESE 4.6 mph - N/A   Overcast
3:53 AM 50.0 °F 46.0 °F 86% 30.29 in 10.0 mi SE 4.6 mph - N/A   Overcast
4:53 AM 50.0 °F 46.0 °F 86% 30.29 in 10.0 mi SE 6.9 mph - N/A   Overcast
5:53 AM 48.9 °F 46.0 °F 90% 30.28 in 10.0 mi SE 4.6 mph - N/A   Overcast
6:42 AM 48.9 °F 46.9 °F 93% 30.28 in 10.0 mi Calm Calm - 0.00 in   Overcast
6:53 AM 48.9 °F 46.0 °F 90% 30.28 in 10.0 mi Calm Calm - 0.00 in   Overcast
7:29 AM 48.9 °F 46.0 °F 90% 30.27 in 10.0 mi Calm Calm - N/A   Overcast
7:53 AM 48.9 °F 46.9 °F 93% 30.27 in 10.0 mi Calm Calm - N/A   Overcast
8:13 AM 50.0 °F 46.9 °F 89% 30.27 in 10.0 mi Calm Calm - N/A   Overcast
8:53 AM 52.0 °F 46.9 °F 83% 30.27 in 10.0 mi Variable 3.5 mph - N/A   Overcast
9:53 AM 54.0 °F 48.0 °F 80% 30.26 in 10.0 mi Calm Calm - N/A   Overcast
10:12 AM 55.0 °F 48.0 °F 77% 30.25 in 10.0 mi Variable 3.5 mph - N/A   Overcast
10:53 AM 55.9 °F 48.0 °F 75% 30.25 in 10.0 mi East 3.5 mph - N/A   Overcast
11:53 AM 57.9 °F 48.0 °F 70% 30.24 in 10.0 mi Calm Calm - N/A   Overcast
12:30 PM 60.1 °F 48.0 °F 64% 30.22 in 10.0 mi South 3.5 mph - N/A   Scattered Clouds
1:53 PM 62.1 °F 48.9 °F 62% 30.19 in 10.0 mi NE 3.5 mph - N/A   Clear
2:53 PM 62.1 °F 48.9 °F 62% 30.17 in 10.0 mi North 5.8 mph - N/A   Clear
3:53 PM 61.0 °F 48.9 °F 64% 30.14 in 10.0 mi NW 5.8 mph - N/A   Clear
4:53 PM 60.1 °F 46.9 °F 62% 30.13 in 10.0 mi Variable 6.9 mph - N/A   Clear
5:53 PM 59.0 °F 48.0 °F 67% 30.12 in 10.0 mi North 8.1 mph - N/A   Clear
6:53 PM 57.0 °F 46.9 °F 69% 30.10 in 10.0 mi Calm Calm - N/A   Clear
7:53 PM 53.1 °F 46.9 °F 80% 30.10 in 10.0 mi West 3.5 mph - N/A   Clear
8:53 PM 51.1 °F 46.0 °F 83% 30.12 in 10.0 mi West 4.6 mph - N/A   Clear
9:53 PM 46.9 °F 44.1 °F 90% 30.12 in 10.0 mi West 4.6 mph - N/A   Clear
10:53 PM 45.0 °F 43.0 °F 93% 30.13 in 10.0 mi Calm Calm - N/A   Clear
11:53 PM 44.1 °F 43.0 °F 96% 30.14 in 10.0 mi Calm Calm - N/A   Clear